sat.trackr.live / text

‹ back to catalog

UNKNOWN

NORAD 89403

UNKNOWN UNKNOWN UNKNOWN

§ Identity

Operator
Country
Launch date
Launch site
Launch vehicle
Mass (kg)
RCS (m²)

External: N2YO · Heavens-Above

§ Orbital elements

Epoch: 2026-09-14T13:28:11.080704Z

Period
110.85 min
Inclination
90.2555°
Eccentricity
0.0030342
Mean motion
12.99063664 rev/d
Perigee alt
1,242.6 km
Apogee alt
1,289.0 km
Semi-major
7,643.9 km
B*
6.1162e-3
RAAN
12.1388°
Arg perigee
208.1509°
Mean anomaly
164.3418°
Rev number
51,363

§ Raw data

UNKNOWN1 89403U          26257.56123936  .00001827  00000+0  61162-2 0  99962 89403  90.2555  12.1388 0030342 208.1509 164.3418 12.99063664513633

JSON: /api/v1/satellites/89403 · /tle

For live sub-satellite position, see the globe view (requires WebGL).

§ Visibility from observer

Set your observer location to see the next 7 days of passes ≥ 10°. The values pass through the URL so the page stays shareable.

No JS? Fill the form by hand. The geolocation button needs JavaScript.